FW4249 Weather Reports


Display with metric or nautical units.
time (UTC)temp
F
wind
direction
speed
MPH
gust
MPH
rain 1hr
in
rain 24hr
in
rain mn
in
humidity
%
barometer
mb
20190820073217 87 315 2.0 3.0 0.00 0.07 0.03 72 1006.1
20190820072217 87 292 2.0 3.0 0.00 0.07 0.03 73 1006.0
20190820071217 86 337 2.0 4.0 0.00 0.07 0.03 73 1006.1
20190820070217 87 315 8.0 10.0 0.00 0.07 0.03 72 1006.0
20190820065217 87 315 4.0 7.0 0.00 0.07 0.03 72 1006.2
20190820064217 87 270 3.0 5.0 0.00 0.07 0.03 73 1006.3
20190820063217 86 22 2.0 4.0 0.00 0.07 0.03 73 1006.4
20190820062218 86 315 4.0 8.0 0.00 0.07 0.03 72 1006.6
20190820061217 85 315 3.0 5.0 0.00 0.07 0.03 73 1006.7
20190820060217 85 67 2.0 3.0 0.00 0.07 0.03 73 1006.7
20190820055217 86 45 2.0 3.0 0.00 0.07 0.03 71 1006.6
20190820054217 86 90 2.0 3.0 0.00 0.07 0.03 71 1006.8
20190820053217 86 112 2.0 3.0 0.00 0.07 0.03 72 1006.9
20190820052217 86 0.0 0.0 0.00 0.07 0.03 73 1007.0
20190820051217 85 112 2.0 2.0 0.00 0.07 0.03 74 1007.0
20190820050217 85 112 2.0 3.0 0.00 0.07 0.03 75 1007.2
20190820045217 84 112 3.0 4.0 0.00 0.08 0.03 76 1007.5
20190820044218 84 112 2.0 3.0 0.00 0.08 0.03 76 1007.5
20190820043217 85 112 2.0 3.0 0.00 0.08 0.03 75 1007.4
20190820042217 85 135 2.0 2.0 0.00 0.08 0.03 74 1007.4
20190820041217 85 135 1.0 2.0 0.00 0.08 0.03 74 1007.5
20190820040217 85 135 2.0 2.0 0.00 0.08 0.03 75 1007.6
20190820035217 85 135 2.0 3.0 0.00 0.08 0.03 76 1007.7
20190820034217 84 135 2.0 2.0 0.00 0.08 0.03 76 1007.9
20190820033217 84 135 3.0 4.0 0.00 0.08 0.03 75 1008.1
20190820032217 85 112 2.0 3.0 0.00 0.08 0.03 74 1008.1
20190820031217 86 112 4.0 4.0 0.00 0.08 0.03 74 1008.2
20190820030217 85 112 2.0 3.0 0.00 0.08 0.03 76 1008.1
20190820025217 84 112 2.0 3.0 0.00 0.08 0.03 77 1008.2
20190820024217 83 135 2.0 3.0 0.00 0.08 0.03 78 1008.2
20190820023217 84 135 2.0 3.0 0.00 0.08 0.03 77 1008.2
20190820022217 84 135 2.0 4.0 0.00 0.08 0.03 77 1008.3
20190820021217 84 157 5.0 5.0 0.00 0.08 0.03 77 1008.3
20190820020217 84 135 4.0 7.0 0.00 0.08 0.03 77 1008.4
20190820015217 84 90 3.0 4.0 0.00 0.08 0.03 78 1008.3
20190820014217 83 0.0 0.0 0.00 0.08 0.03 78 1008.1
20190820013217 83 22 2.0 3.0 0.00 0.08 0.03 78 1008.0
20190820012217 84 45 3.0 4.0 0.00 0.08 0.03 76 1007.8
20190820011217 84 45 2.0 3.0 0.00 0.08 0.03 77 1007.9
20190820010217 84 45 1.0 2.0 0.00 0.08 0.03 80 1008.0
20190820005217 83 0.0 0.0 0.00 0.08 0.03 81 1008.0
20190820004217 82 0.0 0.0 0.00 0.08 0.03 81 1008.1
20190820003217 82 45 2.0 3.0 0.00 0.08 0.03 81 1008.1
20190820002217 81 45 2.0 3.0 0.00 0.08 0.03 83 1008.1
20190820001217 81 0.0 0.0 0.00 0.08 0.03 86 1008.0
20190820000217 80 0.0 0.0 0.00 0.08 0.03 88 1007.8
20190819235217 79 0.0 0.0 0.00 0.08 0.03 88 1007.7
20190819234217 78 0.0 0.0 0.00 0.08 0.03 88 1007.6
20190819233217 79 0.0 0.0 0.00 0.08 0.03 88 1007.8
20190819232217 79 0.0 0.0 0.00 0.08 0.03 89 1008.0
20190819231217 79 0.0 0.0 0.00 0.08 0.03 89 1008.0
20190819230216 78 0.0 0.0 0.00 0.08 0.03 89 1007.9
20190819225217 78 0.0 0.0 0.00 0.08 0.03 89 1007.8
20190819224216 78 0.0 0.0 0.00 0.08 0.03 88 1007.8
20190819223217 77 0.0 0.0 0.00 0.08 0.03 88 1007.7
20190819222217 77 0.0 0.0 0.00 0.07 0.02 88 1007.7
20190819221216 77 0.0 0.0 0.01 0.11 0.02 88 1007.6
20190819220217 77 22 1.0 2.0 0.01 0.18 0.02 88 1007.3
20190819215217 77 22 3.0 4.0 0.01 0.42 0.02 88 1007.2
20190819214217 77 112 5.0 6.0 0.01 0.66 0.02 88 1007.1
20190819213216 77 135 4.0 5.0 0.01 0.66 0.02 88 1007.2
20190819212216 77 157 6.0 6.0 0.01 0.66 0.02 87 1007.2
20190819211216 78 157 5.0 7.0 0.00 0.65 0.00 88 1007.2
20190819210217 78 180 5.0 8.0 0.00 0.65 0.00 88 1007.1
20190819205216 78 157 7.0 9.0 0.00 0.65 0.00 87 1007.0
20190819204216 78 157 4.0 5.0 0.00 0.65 0.00 87 1006.9
20190819203216 78 112 3.0 4.0 0.00 0.65 0.00 87 1007.0
20190819202217 78 112 3.0 4.0 0.00 0.65 0.00 87 1007.0
20190819201216 78 112 3.0 4.0 0.00 0.65 0.00 87 1007.0
20190819200217 78 90 2.0 3.0 0.00 0.65 0.00 87 1007.1
20190819195216 78 90 4.0 4.0 0.00 0.65 0.00 87 1007.0
20190819194216 78 90 8.0 8.0 0.00 0.65 0.00 87 1006.9
20190819193216 78 90 8.0 9.0 0.00 0.65 0.00 87 1006.9
20190819192216 78 90 8.0 9.0 0.00 0.65 0.00 87 1006.9
20190819191216 78 90 5.0 5.0 0.00 0.65 0.00 87 1006.8
20190819190217 78 90 5.0 6.0 0.00 0.65 0.00 87 1007.0
20190819185216 78 112 5.0 7.0 0.00 0.65 0.00 87 1007.0
20190819184216 78 67 3.0 4.0 0.00 0.65 0.00 87 1007.0
20190819183216 78 67 4.0 5.0 0.00 0.65 0.00 87 1007.1
20190819182216 78 67 4.0 5.0 0.00 0.65 0.00 87 1007.2
20190819181216 78 0 3.0 5.0 0.00 0.64 0.00 87 1007.1
20190819180216 78 67 5.0 6.0 0.00 0.64 0.00 87 1007.2
20190819175216 78 22 5.0 7.0 0.00 0.64 0.00 87 1007.2
20190819174216 78 22 3.0 4.0 0.00 0.64 0.00 87 1007.3
20190819173216 78 0 5.0 7.0 0.00 0.64 0.00 87 1007.2
20190819172217 78 0 5.0 8.0 0.00 0.64 0.00 87 1007.2
20190819171216 78 0 3.0 3.0 0.00 0.64 0.00 87 1007.3
20190819170216 78 315 2.0 3.0 0.00 0.64 0.00 87 1007.4
20190819165216 78 315 2.0 4.0 0.00 0.64 0.00 87 1007.4
20190819164216 78 315 3.0 4.0 0.02 0.64 0.00 87 1007.5
20190819163216 78 0.0 0.0 0.04 0.64 0.00 87 1007.7
20190819162216 78 90 1.0 1.0 0.04 0.64 0.00 86 1007.6
20190819161216 78 0.0 0.0 0.04 0.64 0.00 86 1007.7
20190819160216 78 0.0 0.0 0.04 0.64 0.00 86 1007.9
20190819155216 78 90 3.0 4.0 0.04 0.64 0.64 86 1008.0
20190819154217 79 67 2.0 4.0 0.02 0.62 0.62 86 1008.3
20190819153216 79 45 5.0 6.0 0.00 0.59 0.59 85 1008.2
20190819152216 79 45 3.0 4.0 0.00 0.59 0.59 86 1008.3
20190819151216 79 0.0 0.0 0.00 0.59 0.59 85 1008.2
20190819150216 79 22 1.0 2.0 0.00 0.59 0.59 85 1008.2
20190819145216 78 45 3.0 4.0 0.00 0.59 0.59 85 1008.2
20190819144217 78 22 4.0 6.0 0.00 0.59 0.59 85 1008.3
20190819143216 79 0 2.0 4.0 0.00 0.59 0.59 85 1008.5
20190819142217 79 0.0 0.0 0.00 0.59 0.59 86 1008.5
20190819141216 79 22 3.0 4.0 0.00 0.59 0.59 86 1008.7
20190819140216 79 45 3.0 4.0 0.00 0.59 0.59 86 1008.6
20190819135217 79 45 3.0 4.0 0.00 0.59 0.59 86 1008.5
20190819134216 79 22 4.0 6.0 0.00 0.59 0.59 86 1008.5
20190819133216 79 0 6.0 8.0 0.00 0.59 0.59 86 1008.2
20190819132217 79 22 4.0 4.0 0.00 0.60 0.59 86 1008.1
20190819131216 79 112 2.0 3.0 0.00 0.60 0.59 86 1008.0
20190819130216 79 112 2.0 3.0 0.00 0.60 0.59 86 1007.9
20190819125216 79 135 4.0 7.0 0.00 0.60 0.59 86 1007.7
20190819124216 79 112 4.0 5.0 0.00 0.60 0.59 86 1007.7
20190819123216 79 157 6.0 9.0 0.00 0.60 0.59 86 1007.6
20190819122216 79 135 6.0 8.0 0.00 0.60 0.59 86 1007.6
20190819121216 79 157 4.0 6.0 0.00 0.60 0.59 86 1007.7
20190819120216 79 157 2.0 3.0 0.00 0.60 0.59 85 1007.7
20190819115216 79 45 2.0 3.0 0.00 0.60 0.59 85 1007.8
20190819114215 79 45 4.0 5.0 0.00 0.60 0.59 86 1007.7
20190819113216 79 22 4.0 5.0 0.00 0.60 0.59 86 1007.8
20190819112216 79 0 3.0 5.0 0.00 0.60 0.59 86 1007.9
20190819111216 79 0 2.0 3.0 0.00 0.60 0.59 86 1007.8
20190819110215 79 0 2.0 3.0 0.00 0.60 0.59 86 1007.7
20190819105215 79 0 5.0 6.0 0.00 0.60 0.59 85 1007.7
20190819104216 79 0 3.0 4.0 0.00 0.60 0.59 85 1007.6
20190819103215 79 0.0 0.0 0.00 0.60 0.59 85 1007.6
20190819102216 80 0.0 0.0 0.00 0.60 0.59 85 1007.4
20190819101216 80 135 2.0 2.0 0.00 0.60 0.59 85 1007.3
20190819100215 80 135 2.0 3.0 0.00 0.60 0.59 85 1007.1
20190819095216 80 135 5.0 6.0 0.00 0.60 0.59 85 1006.9
20190819094216 80 135 4.0 5.0 0.00 0.60 0.59 85 1006.8
20190819093216 80 135 5.0 6.0 0.00 0.60 0.59 85 1006.8
20190819092216 80 180 5.0 7.0 0.00 0.60 0.59 85 1006.7
20190819091216 80 180 3.0 4.0 0.00 0.60 0.59 85 1006.5
20190819090215 80 180 5.0 7.0 0.00 0.60 0.59 85 1006.5
20190819085215 80 157 5.0 7.0 0.00 0.60 0.59 85 1006.3
20190819084215 80 135 4.0 9.0 0.00 0.60 0.59 86 1006.3
20190819083216 80 135 6.0 8.0 0.00 0.61 0.59 86 1006.2
20190819082215 79 157 5.0 7.0 0.00 0.61 0.59 86 1006.2
20190819081217 79 180 3.0 5.0 0.00 0.61 0.59 86 1006.2
20190819080220 79 157 7.0 9.0 0.00 0.61 0.59 86 1006.2
20190819075218 79 157 7.0 9.0 0.00 0.61 0.59 86 1006.3
20190819074215 79 180 7.0 10.0 0.00 0.61 0.59 86 1006.2